Location: *
(43.2048°N, 0.1612°E)
Time: 21:43:49
(UTC+00:00)

Lacrosse 5 rocket - Pass Details

Date: 30 September 2023
Orbit: 452 x 591 km, 57.0° (Epoch: 06 December)

Event Time Altitude Azimuth Distance (km) Brightness Sun altitude
Exits shadow 03:30:18 46° 67° (ENE) 722 2.2 -26.6°
Drops below altitude 10° 03:33:13 10° 51° (NE) 1,760 4.8 -26.1°
Enters shadow 04:30:12 -67° 232° (SW) 12,339 8.1 -16.2°
